CAPE
0 0 0 0 0 0 0 0 0 0 0 0 0 0 0 0 0 0 0 0 0 0 0 0 0 0 0 0 0 0 0 0 0 0 0 0 0 0 0 0 0 0 0 0 0 10 1331 1523 1808 2655 3228 3299 3348 3458 3317 2977 2660 2303 2098 2017 1923 1845 1806 1759 1736 1685 1438 1494 1506 1316 1315 1512 1360 1514 1431 1250 1528 1571 1656 1775 1795 1804 1795 1804 1781 1806
0 0 0 0 0 0 0 0 0 6 3 0 0 0 0 0 0 0 0 0 0 0 0 0 0 0 0 0 0 0 0 0 0 0 0 0 0 0 0 0 0 0 0 0 0 0 872 1749 1606 2419 2566 2432 2822 3331 3353 3059 2716 2442 2227 2117 2017 1872 1861 1796 1742 1758 1522 1506 1519 1432 1322 1439 1514 1472 1452 1264 1409 1667 1739 1805 1818 1850 1838 1774 1717 1750
3 0 0 0 2 3 1 0 0 1 0 0 0 0 0 0 0 0 0 3 15 0 0 0 0 0 0 0 0 0 0 0 0 0 0 0 0 0 0 0 0 0 0 0 0 0 297 1906 1847 2285 2686 2297 2645 3147 3374 3090 2742 2502 2304 2155 2098 1928 1981 1881 1801 1766 1579 1540 1541 1479 1330 1424 1562 1490 1492 1397 1367 1598 1786 1859 1842 1810 1765 1697 1669 1703
13 0 0 5 8 4 5 4 0 0 0 0 0 0 0 0 0 0 0 0 9 0 0 0 0 0 0 0 0 0 0 0 0 0 0 0 0 0 0 0 0 0 0 0 0 0 179 1819 2224 2405 2977 2724 2712 3035 3267 3090 2754 2574 2440 2247 2123 2021 2032 1973 1866 1821 1599 1588 1593 1533 1366 1412 1548 1541 1496 1566 1525 1753 1811 1881 1873 1831 1720 1650 1646 1697
4 0 0 0 1 1 1 0 0 0 0 0 0 0 0 0 0 0 1 0 0 0 0 0 0 0 0 0 0 0 0 0 0 0 0 0 0 0 0 0 0 0 0 0 0 0 376 1293 2564 2727 2888 3106 2936 2791 2953 3016 2798 2618 2561 2370 2229 2086 1952 2061 1939 1851 1658 1637 1636 1570 1451 1446 1476 1519 1498 1606 1637 1855 1896 1890 1897 1879 1820 1691 1646 1654
0 0 3 2 0 0 0 0 0 0 0 0 0 0 0 0 0 0 0 0 0 0 0 0 0 0 0 0 0 0 0 0 0 0 0 0 0 0 0 0 0 0 0 0 0 0 649 1462 1935 3027 3216 3099 3019 3009 2732 2830 2728 2637 2626 2525 2345 2197 2022 2084 2031 1956 1776 1644 1688 1585 1452 1476 1526 1532 1505 1618 1704 1646 1804 1930 1938 1964 1880 1770 1686 1626
0 0 0 0 0 0 0 0 1 0 0 0 3 2 1 0 0 0 0 0 0 0 0 0 0 0 0 0 0 0 0 0 0 0 0 0 0 0 0 0 0 0 0 0 0 0 332 1596 1668 2227 3280 3289 2837 2912 2659 2295 2528 2579 2615 2554 2426 2309 2157 2049 2074 1992 1863 1644 1646 1623 1526 1419 1436 1487 1440 1526 1642 1693 1662 1771 1876 1866 1809 1718 1604 1485
0 22 0 0 0 0 0 0 0 0 0 0 0 1 0 0 0 0 0 0 0 0 0 0 0 0 0 0 0 0 0 0 0 0 0 0 0 0 0 0 0 0 0 0 0 0 112 1286 1740 2020 2158 2089 2411 2251 1616 1719 2387 2242 2543 2533 2446 2330 2157 2014 2124 2043 1927 1706 1603 1632 1570 1472 1408 1421 1469 1392 1518 1574 1570 1532 1722 1716 1669 1577 1449 1352
0 2 0 0 0 0 0 0 0 0 0 0 0 0 0 0 0 1 0 1 2 0 0 0 0 0 0 0 0 0 0 0 0 0 0 0 0 0 0 0 0 0 0 0 0 0 1 894 1428 1850 2122 1916 1867 1438 1144 1184 1943 2082 2425 2596 2510 2352 2095 1980 2203 2141 1985 1846 1703 1588 1545 1527 1460 1420 1383 1294 1417 1476 1414 1500 1583 1614 1596 1532 1453 1384
0 0 0 0 0 0 0 0 0 0 0 0 0 0 0 0 0 0 0 0 0 0 0 0 0 0 0 0 0 0 0 0 0 0 0 0 0 0 0 0 0 0 0 0 0 0 0 610 1365 1470 1606 1369 1608 1290 1056 1320 2100 2249 2304 2536 2526 2392 2145 1908 2116 2198 2103 2000 1863 1724 1615 1547 1536 1492 1442 1376 1432 1552 1535 1508 1534 1537 1532 1502 1461 1399
0 0 0 0 0 0 0 0 0 0 0 1 2 0 0 0 0 0 0 0 0 0 0 0 0 0 0 0 0 0 0 0 0 0 0 0 0 0 0 0 0 0 0 0 0 0 0 318 1597 1910 1816 1730 1720 1731 1384 1513 2123 2565 2237 2518 2528 2474 2298 1945 2044 2167 2123 2007 1905 1793 1640 1546 1556 1527 1485 1428 1319 1512 1527 1536 1499 1509 1499 1479 1452 1396
0 0 0 0 10 12 6 8 0 60 28 0 1 2 0 1 0 0 1 0 0 0 0 0 0 0 0 0 0 0 0 0 0 0 0 0 0 0 0 0 0 0 0 0 0 0 0 20 1412 2236 2121 1928 1818 1996 1894 2059 2330 2639 2395 2457 2522 2506 2434 2165 2076 2158 2154 2059 1963 1856 1724 1608 1508 1558 1513 1453 1372 1456 1519 1520 1492 1482 1463 1436 1403 1344
0 0 0 0 406 9 0 0 0 4 21 4 0 0 1 3 3 2 4 1 0 0 0 0 0 0 0 0 0 0 0 0 0 0 0 0 0 0 0 0 0 0 0 0 0 0 0 0 905 2032 1948 1525 1512 1700 2052 2226 2412 2623 2283 2419 2509 2510 2487 2319 2035 2153 2175 2106 2032 1927 1821 1718 1635 1554 1550 1465 1382 1440 1495 1520 1471 1440 1456 1422 1384 1344
0 0 0 0 0 102 0 0 0 0 0 0 0 0 0 2 2 0 0 0 0 0 0 0 0 0 0 0 0 0 0 0 0 0 0 0 0 0 0 0 0 0 0 0 0 0 0 0 1020 1640 2000 1944 1672 1772 1831 1718 2105 2448 2263 2360 2449 2467 2476 2401 2244 2129 2194 2161 2072 1968 1874 1801 1746 1640 1532 1484 1468 1467 1492 1506 1487 1421 1416 1435 1372 1327
0 0 1 0 0 0 0 0 0 0 0 0 0 0 0 0 1 2 0 0 0 0 0 0 0 0 0 0 0 0 0 0 0 0 0 0 0 0 0 0 0 0 0 0 0 0 0 0 887 1269 1492 1578 1758 1846 1594 1142 1451 1838 2216 2206 2364 2443 2455 2446 2364 2235 2125 2155 2114 1997 1863 1732 1739 1787 1671 1483 1552 1518 1518 1490 1472 1452 1361 1299 1318 1274
0 0 0 0 0 0 0 0 0 0 0 0 0 1 0 0 0 0 0 0 0 0 0 0 0 0 0 0 0 0 0 0 0 0 0 0 0 0 0 0 0 0 0 0 0 0 0 0 900 1111 1203 1203 1242 1352 1502 1230 1104 978 1684 2216 2356 2413 2508 2512 2381 2221 2095 1979 1862 1780 1753 1720 1808 1794 1718 1613 1617 1606 1547 1501 1454 1419 1355 1310 1217 1244
3 2 0 0 0 0 0 0 0 0 0 0 0 0 0 0 0 1 0 0 0 0 0 0 0 0 0 0 0 0 0 0 0 0 0 0 0 0 0 0 0 0 0 0 0 0 0 0 554 1089 1012 1006 1092 986 918 905 1110 1320 1388 2015 2246 2310 2353 2294 2032 1899 1900 1872 1758 1760 1774 1819 1835 1896 1856 1751 1666 1609 1577 1537 1462 1411 1344 1287 1218 1165
8 0 0 0 0 0 0 0 0 0 0 0 0 0 0 0 0 2 1 0 0 0 0 0 0 0 0 0 0 0 0 0 0 0 0 0 0 0 0 0 0 0 0 0 0 0 0 0 225 1007 954 846 1022 1081 928 680 628 604 869 1357 1855 2226 2165 2108 1856 1900 1946 1890 1710 1656 1741 1801 1897 1972 1941 1824 1734 1626 1563 1516 1475 1418 1362 1296 1242 1170
14 0 1 0 0 0 0 0 0 0 0 0 0 0 0 1 1 0 0 4 0 0 0 0 0 0 0 0 0 0 0 0 0 0 0 0 0 0 0 0 0 0 0 0 0 0 0 0 0 709 1082 973 986 1040 1060 1062 716 530 476 463 1458 2403 2390 2187 2072 2072 2037 1941 1781 1718 1742 1837 2001 2064 2007 1910 1756 1680 1611 1531 1468 1426 1383 1335 1286 1227
3 2 0 0 0 0 0 0 0 0 0 0 0 0 0 0 0 0 0 0 0 0 0 0 0 0 0 0 0 0 0 0 31 50 39 7 0 0 0 0 0 0 0 0 0 0 0 0 30 606 1177 1273 1257 1071 973 845 742 595 458 418 1025 2099 2138 1897 1945 2043 2046 1945 1792 1688 1723 1851 1952 2061 2093 1981 1870 1773 1698 1596 1498 1469 1430 1382 1321 1236
9 14 0 0 0 0 0 0 4 0 0 0 0 0 1 0 0 0 0 0 0 0 0 0 1 1 2 3 0 0 0 0 27 47 18 0 0 0 0 0 0 0 0 0 0 0 0 0 29 646 1155 1463 1520 1414 1069 923 737 881 934 893 1064 1616 1649 1315 1480 1712 1884 1929 1844 1656 1655 1738 1817 1992 2050 1933 1873 1844 1782 1691 1594 1475 1429 1374 1310 1266
4 4 9 3 0 3 3 4 2 0 0 1 2 6 3 0 2 0 0 0 0 1 0 0 17 2 0 0 0 0 0 7 21 20 0 0 0 0 0 0 0 0 0 0 0 0 0 0 81 633 1202 1521 1662 1786 1730 1529 1413 1477 1526 1492 1458 1660 1269 1177 1378 1745 1887 1917 1865 1742 1547 1642 1891 1995 1965 2026 1975 1905 1833 1730 1714 1589 1478 1419 1368 1397
6 2 2 3 8 1 3 4 7 2 2 0 4 9 3 2 6 17 3 0 0 2 0 3 11 0 26 0 0 0 0 0 0 0 0 0 0 0 0 0 0 0 5 1 0 0 0 0 152 736 1229 1484 1747 2001 2062 2070 2051 1968 1922 1856 1935 1627 1468 1435 1398 1620 1777 1788 1795 1753 1605 1678 1924 2046 2044 2080 2076 2026 1930 1814 1744 1678 1572 1467 1390 1545
25 2 0 0 1 1 0 0 0 0 1 0 0 6 3 1 0 1 1 7 12 19 1 5 4 4 55 0 2 0 0 0 0 0 0 0 0 0 0 0 0 1 62 146 228 322 305 0 38 770 1186 1468 1642 2044 2256 2270 2304 2292 2262 2133 2025 1789 1697 1560 1502 1624 1670 1611 1638 1659 1706 1821 1968 1928 2054 2090 2089 2064 1991 1889 1811 1722 1631 1569 1658 1654
7 0 1 4 0 0 0 0 0 0 2 0 1 0 0 0 0 1 6 9 10 9 9 8 6 0 0 2 4 3 0 0 4 8 6 0 0 0 0 0 0 2 61 170 296 393 312 0 35 659 1106 1316 1572 1906 2230 2337 2409 2413 2459 2456 2349 2206 2002 1692 1673 1667 1510 1522 1659 1692 1786 1758 1609 1882 2027 2052 2061 2053 1983 1934 1853 1767 1693 1710 1862 1874
7 7 12 4 1 1 4 2 1 0 1 4 3 0 0 0 0 0 2 5 2 7 4 3 1 1 1 6 1 10 10 13 10 21 30 20 12 28 0 0 0 0 30 131 232 277 276 0 111 528 974 1227 1515 1918 2260 2384 2410 2392 2301 2148 2059 2312 2148 2001 2134 2043 1715 1622 1648 1727 1883 1688 1632 1875 2020 1986 2014 2026 1998 1928 1983 2004 1860 1830 1997 2099
10 4 0 0 0 0 0 1 2 5 3 6 2 0 3 5 0 0 0 3 5 1 1 2 0 0 1 1 4 2 7 4 6 4 3 11 4 0 0 0 0 1 41 110 185 289 293 0 393 681 858 1190 1564 1962 2289 2438 2388 2216 2172 2097 2334 2204 1852 1555 2030 2288 2089 1833 1774 1650 1557 1477 1599 2030 2007 1978 1956 1974 1984 1948 2097 2250 2134 2018 2146 2310
5 0 0 0 0 0 3 5 4 4 2 4 6 5 2 2 8 0 0 1 6 3 0 6 1 1 3 2 1 6 2 2 8 6 0 0 0 0 0 0 0 62 99 139 189 257 250 71 386 1002 1101 1322 1625 2040 2316 2407 2349 2370 2484 2568 2562 2609 2401 1261 1706 2152 2037 1814 1675 1582 1608 1719 2043 2063 2033 1992 1950 1945 2001 1985 2108 2331 2363 2291 2353 2445
0 0 0 0 0 0 7 7 1 3 0 6 17 5 3 0 0 0 4 16 4 5 0 2 1 3 0 2 9 6 4 0 9 0 0 4 10 17 4 0 68 91 124 145 192 242 187 0 403 1036 1195 1420 1675 2075 2364 2441 2458 2507 2599 2647 2658 2654 2521 1638 1614 1820 1491 1559 1695 1672 2105 2395 2327 2200 2124 2056 2006 1957 1927 1933 2023 2284 2371 2392 2403 2465
0 0 0 0 0 2 8 6 5 1 1 9 10 5 1 0 0 0 2 3 3 4 1 0 0 0 0 19 37 52 51 54 47 61 60 81 9 0 0 115 132 142 130 168 189 173 0 0 497 1026 1165 1402 1676 2070 2316 2448 2476 2498 2554 2569 2587 2609 2390 1736 1457 1578 1518 1565 1688 1739 2102 2299 2354 2333 2220 2096 2013 1973 1956 1929 1937 2173 2313 2409 2458 2503
0 0 0 0 0 2 10 9 8 0 0 1 1 0 0 0 0 0 3 0 1 8 10 1 0 0 2 6 116 137 144 161 232 313 419 508 639 550 419 304 192 203 193 213 196 8 0 0 498 1076 1235 1371 1638 2031 2268 2407 2425 2507 2536 2538 2616 2524 2239 1839 1537 1659 1500 1288 1455 1629 2000 2210 2266 2272 2229 2152 2014 1938 1911 1925 1935 2008 2228 2299 2424 2516
1 0 0 3 0 0 0 0 0 0 0 0 0 0 0 0 0 0 1 1 0 8 6 3 7 8 13 25 82 110 251 357 469 556 651 705 741 722 712 622 443 306 137 0 0 0 0 2 427 1132 1291 1394 1692 1994 2183 2346 2466 2458 2522 2569 2568 2433 2161 1798 1670 1561 1230 1306 1448 1601 1970 2121 2119 2081 2143 2165 2144 2049 1941 1876 1820 1868 2122 2244 2332 2451
1 0 0 3 0 1 0 0 0 0 0 0 1 0 1 5 11 10 10 3 1 0 2 5 17 32 3 41 162 221 323 378 606 580 647 746 653 718 698 839 672 370 0 0 0 0 0 5 486 1138 1350 1469 1760 1971 2114 2243 2332 2403 2491 2614 2596 2369 1946 1678 1762 1695 1349 1124 1122 1470 1692 1666 1838 1872 1912 2001 2111 2109 1946 1890 1774 1750 2072 2226 2353 2146
0 0 0 3 0 7 4 0 0 0 1 0 0 0 3 1 1 5 18 23 13 11 7 4 16 26 10 91 43 267 399 547 632 661 796 895 662 688 1203 1171 724 14 0 0 0 0 0 193 696 1119 1388 1542 1745 1908 2070 2203 2256 2317 2415 2534 2444 2243 1786 1575 1637 1538 1298 1072 867 892 1030 1405 1531 1618 1730 1858 2040 2065 1906 1802 1574 1617 1943 2188 2255 2084
0 0 0 2 0 1 0 0 0 0 0 0 0 0 1 5 9 6 13 13 7 9 6 7 7 26 40 61 257 204 334 508 600 631 883 860 720 1043 1465 1130 1002 870 222 72 30 23 88 438 793 1164 1415 1550 1716 1833 1902 2008 2076 2127 2273 2329 2216 2086 1761 1580 1580 1385 1034 856 759 782 1046 1634 1693 1714 1825 1956 2062 2069 1996 1849 1551 1513 1743 1946 2046 1935
0 0 0 0 0 0 0 0 0 0 0 0 0 0 0 1 2 0 0 6 4 6 7 27 30 28 12 107 212 316 344 316 505 646 840 859 853 1349 1407 1196 1142 1069 758 378 226 222 325 604 902 1230 1411 1478 1586 1650 1718 1857 1915 1967 2144 2130 2044 1920 1682 1521 1527 1243 840 670 611 726 1079 1608 1841 1821 1930 2062 2164 2122 2081 1942 1745 1556 1738 1862 1932 1877
0 0 0 0 0 0 0 0 0 0 0 0 0 0 1 1 1 0 1 0 0 10 6 7 5 13 0 166 286 350 340 129 435 612 789 799 1002 1326 1266 1213 1298 1257 1183 764 681 751 823 993 1166 1356 1462 1496 1530 1598 1656 1658 1692 1740 1772 1845 1878 1921 1968 1954 1794 1197 926 735 768 982 1223 1545 1852 1927 1932 2034 2092 2108 2010 1836 1662 1520 1761 1897 1933 1901
0 0 0 0 0 0 0 2 0 0 0 0 0 0 0 0 0 2 6 20 28 10 20 8 11 20 3 0 311 238 113 80 483 588 683 691 714 928 1050 1234 1670 1546 1409 1207 1201 1274 1269 1266 1313 1435 1478 1493 1501 1506 1472 1471 1481 1485 1522 1712 1938 2046 2134 2140 1894 1208 866 821 858 964 1247 1586 1758 1880 1969 2004 2068 2134 2118 1893 1483 1535 1787 1920 1965 1834
0 0 0 0 0 0 0 1 1 0 2 0 0 0 0 0 0 0 0 0 2 35 48 30 14 6 27 41 227 176 80 149 267 410 603 616 617 658 712 982 1720 1710 1502 1405 1448 1458 1477 1437 1423 1515 1564 1516 1481 1446 1372 1316 1314 1358 1549 1870 2103 2227 2232 2043 1698 1366 1001 1026 1219 1345 1458 1591 1590 1738 1864 1966 2004 2025 2109 1885 1470 1532 1723 1881 1912 1755
0 0 0 0 0 0 0 1 2 9 0 0 3 0 0 0 0 0 0 1 14 25 39 45 6 38 36 1 8 6 28 81 28 78 517 713 687 807 970 1462 1725 1664 1500 1480 1536 1590 1591 1568 1488 1503 1572 1579 1547 1508 1431 1363 1346 1478 1677 1916 2059 2097 2192 1951 1418 1304 1282 1216 1220 1244 1370 1297 1602 1776 1838 1896 1981 1953 2096 1858 1596 1592 1725 1823 1686 1332
0 0 0 3 0 0 0 0 0 6 0 1 3 0 0 0 0 1 3 12 19 24 20 37 33 30 10 125 10 92 10 34 140 369 641 819 1058 1459 1435 1371 1404 1431 1623 1568 1545 1570 1572 1571 1578 1498 1458 1464 1508 1572 1602 1628 1588 1670 1777 1819 1918 1990 1984 1776 1338 1280 1232 938 755 778 902 1247 1715 1956 2030 2049 2096 2103 2166 1957 1821 1791 1652 1643 1575 1216
0 0 0 0 0 2 0 4 0 2 2 11 0 0 0 0 2 4 4 28 26 33 47 54 14 21 35 20 26 15 270 331 464 516 677 752 895 1148 1412 1565 1536 1552 1315 1555 1661 1644 1644 1681 1674 1677 1626 1530 1495 1477 1555 1589 1715 1796 1830 1836 1825 1851 1563 1173 1284 1155 775 710 940 1174 1280 1430 1769 2012 2050 2096 2198 2266 2221 2133 2063 1940 1878 1848 1801 1560
1 0 4 1 4 2 1 10 2 0 0 18 13 0 0 1 5 16 30 34 39 17 34 33 18 33 65 135 134 216 274 222 402 732 737 766 875 1078 1308 1378 1354 1298 1342 1199 1431 1617 1768 1721 1722 1695 1732 1707 1686 1560 1482 1556 1571 1605 1626 1770 1748 1542 1243 1294 1396 1193 954 1116 1436 1336 1251 1472 1680 1884 1946 2028 2115 2165 2111 2175 2082 1854 1800 1803 1743 1682
0 2 2 1 2 1 9 4 0 0 0 26 14 0 2 7 6 16 29 31 25 18 13 55 93 72 16 2 0 0 171 241 364 638 685 707 735 784 819 988 1290 1086 1048 969 1008 1204 1408 1550 1617 1596 1522 1399 1480 1596 1183 1440 1645 1707 1732 1398 1140 1115 942 676 839 972 1031 1076 1130 1267 1320 1302 1353 1251 1210 1328 1386 1631 1867 2089 2031 1972 1987 1913 1831 1618
7 5 3 1 1 3 3 1 0 0 1 8 9 2 2 3 9 16 24 43 34 25 24 34 36 129 236 254 248 207 242 360 508 737 744 778 748 778 703 786 650 493 606 648 827 1468 1482 1515 1538 1464 1480 1247 1316 1150 1045 1078 797 642 905 688 692 718 757 866 904 1020 1094 1056 1091 1050 984 969 947 716 601 542 948 1454 1982 2148 2054 2040 1965 1817 1666 1585
1 0 0 0 0 0 4 0 0 0 1 0 0 1 2 3 15 12 16 36 45 38 22 28 16 58 26 288 461 443 376 366 577 817 780 744 708 693 629 544 487 657 604 604 419 634 1119 1378 1451 1454 1138 938 848 793 749 593 784 691 704 771 914 954 980 1013 1090 1114 964 792 733 942 980 618 400 462 527 471 730 1507 2213 2165 2016 1899 1843 1765 1726 1656
0 0 0 2 4 0 2 1 0 0 0 2 0 0 2 2 4 10 18 33 50 46 23 26 32 19 110 123 331 332 333 336 443 521 650 601 740 771 782 783 626 628 781 880 749 635 668 846 788 818 685 585 907 629 679 1223 1148 1187 1208 1252 1109 877 717 783 829 708 727 792 905 886 668 244 301 415 554 941 1360 1951 1962 1980 1989 1933 1928 1824 1717 1611
0 0 0 0 2 6 3 2 0 0 1 0 1 1 4 3 6 6 13 28 41 47 40 29 20 36 63 82 39 308 389 426 435 432 422 383 408 633 721 761 742 676 566 689 804 872 810 709 547 673 740 738 714 693 957 1195 1141 970 846 686 595 649 574 555 495 558 596 702 617 644 596 371 364 694 1449 1962 2162 2029 1935 1850 1820 1735 1634 1560 1470 1403
2 0 12 3 3 0 1 2 0 0 0 0 0 6 9 8 6 7 6 11 22 28 30 32 18 40 32 47 96 64 183 342 326 338 427 410 410 433 441 326 338 505 677 603 586 709 866 788 724 745 581 674 684 930 972 901 742 564 605 556 557 586 558 553 516 432 424 585 558 580 623 772 901 1244 1956 2167 2098 1835 1713 1545 1442 1323 1340 1262 1173 1050
0 1 7 0 7 4 2 1 1 0 0 0 0 4 12 10 5 7 7 4 10 20 22 24 21 15 36 59 80 108 79 147 364 416 443 401 402 386 389 376 320 356 356 462 419 426 471 565 587 571 576 594 528 524 440 471 563 655 689 633 538 428 355 420 455 436 515 726 1074 1101 1121 1380 1726 1885 1951 1863 1640 1523 1412 1418 1387 1396 1296 1188 1058 1028
0 5 1 5 5 2 3 3 1 0 0 0 2 11 15 10 4 6 9 5 6 13 21 19 16 20 15 17 48 85 76 113 81 137 339 439 450 458 457 419 419 363 270 282 375 398 357 302 259 333 407 526 526 460 430 518 593 631 596 507 538 493 424 446 639 850 934 1318 1267 1518 1781 1895 1913 1800 1646 1518 1467 1417 1321 1278 1156 1096 1001 1029 1011 1043
Wind_Speed
nan nan nan nan nan nan nan nan nan nan nan nan nan nan nan nan nan nan nan nan nan nan nan nan nan nan nan nan nan nan nan nan nan nan nan nan nan nan nan nan nan nan nan nan nan nan 60 60 60 57 53 48 48 47 44 38 29 24 30 33 27 26 30 34 38 39 41 41 40 37 32 29 27 27 27 25 24 23 24 25 20 15 16 16 16 17
nan nan nan nan nan nan nan nan nan nan nan nan nan nan nan nan nan nan nan nan nan nan nan nan nan nan nan nan nan nan nan nan nan nan nan nan nan nan nan nan nan nan nan nan nan nan 60 60 61 60 56 52 50 48 48 46 34 26 29 29 28 30 30 31 34 37 40 41 40 36 31 31 30 30 28 27 26 24 24 23 18 16 17 16 16 18
nan nan nan nan nan nan nan nan nan nan nan nan nan nan nan nan nan nan nan nan nan nan nan nan nan nan nan nan nan nan nan nan nan nan nan nan nan nan nan nan nan nan nan nan nan nan 59 56 53 55 57 55 49 44 44 49 46 38 36 36 37 36 34 32 33 38 39 42 44 40 35 33 34 33 32 32 30 26 25 22 18 18 17 15 16 19
nan nan nan nan nan nan nan nan nan nan nan nan nan nan nan nan nan nan nan nan nan nan nan nan nan nan nan nan nan nan nan nan nan nan nan nan nan nan nan nan nan nan nan nan nan nan 54 55 52 52 56 55 59 53 42 46 49 48 46 45 43 41 38 34 32 35 39 43 47 43 38 37 37 36 37 35 30 26 25 23 20 18 16 16 17 18
nan nan nan nan nan nan nan nan nan nan nan nan nan nan nan nan nan nan nan nan nan nan nan nan nan nan nan nan nan nan nan nan nan nan nan nan nan nan nan nan nan nan nan nan nan nan 53 53 53 53 55 60 59 55 52 47 49 51 48 47 45 44 39 37 36 37 41 46 50 49 46 43 42 40 35 32 25 24 26 25 19 16 16 17 18 18
nan nan nan nan nan nan nan nan nan nan nan nan nan nan nan nan nan nan nan nan nan nan nan nan nan nan nan nan nan nan nan nan nan nan nan nan nan nan nan nan nan nan nan nan nan nan 49 48 51 55 60 62 60 58 59 56 52 52 50 49 47 45 42 40 40 42 42 42 45 47 44 38 33 31 28 23 24 28 28 25 21 18 18 19 17 18
nan nan nan nan nan nan nan nan nan nan nan nan nan nan nan nan nan nan nan nan nan nan nan nan nan nan nan nan nan nan nan nan nan nan nan nan nan nan nan nan nan nan nan nan nan nan 56 49 52 56 57 59 59 57 56 53 56 58 56 53 49 46 45 43 41 43 43 41 42 42 40 35 30 28 25 24 32 34 32 28 21 20 21 19 17 17
nan nan nan nan nan nan nan nan nan nan nan nan nan nan nan nan nan nan nan nan nan nan nan nan nan nan nan nan nan nan nan nan nan nan nan nan nan nan nan nan nan nan nan nan nan nan 64 52 49 52 53 56 55 55 53 48 50 59 62 59 55 51 48 47 44 43 40 37 38 40 39 35 31 28 28 31 36 38 32 26 22 22 23 18 16 18
nan nan nan nan nan nan nan nan nan nan nan nan nan nan nan nan nan nan nan nan nan nan nan nan nan nan nan nan nan nan nan nan nan nan nan nan nan nan nan nan nan nan nan nan nan nan nan 62 53 52 53 53 53 56 56 45 39 50 60 59 57 53 49 47 45 44 41 37 36 36 37 34 33 32 33 37 40 35 29 26 25 24 23 18 15 17
nan nan nan nan nan nan nan nan nan nan nan nan nan nan nan nan nan nan nan nan nan nan nan nan nan nan nan nan nan nan nan nan nan nan nan nan nan nan nan nan nan nan nan nan nan nan nan 73 62 55 52 54 55 59 58 51 40 37 49 53 53 51 50 48 46 46 45 42 40 37 34 32 34 36 36 39 38 32 28 26 25 25 22 18 17 17
nan nan nan nan nan nan nan nan nan nan nan nan nan nan nan nan nan nan nan nan nan nan nan nan nan nan nan nan nan nan nan nan nan nan nan nan nan nan nan nan nan nan nan nan nan nan nan 75 72 64 58 62 69 65 59 59 48 38 39 45 47 49 52 51 49 48 46 45 42 37 34 31 32 34 37 39 35 29 27 24 23 24 22 19 17 18
nan nan nan nan nan nan nan nan nan nan nan nan nan nan nan nan nan nan nan nan nan nan nan nan nan nan nan nan nan nan nan nan nan nan nan nan nan nan nan nan nan nan nan nan nan nan nan nan 77 74 66 66 71 75 71 66 64 54 44 43 46 50 53 53 52 51 50 47 40 36 34 30 30 32 35 33 28 24 23 23 24 25 23 18 17 17
nan nan nan nan 14 nan nan nan nan nan nan nan nan nan nan nan nan nan nan nan nan nan nan nan nan nan nan nan nan nan nan nan nan nan nan nan nan nan nan nan nan nan nan nan nan nan nan nan 71 76 70 65 69 70 73 74 70 65 56 48 48 50 52 51 50 49 49 49 43 36 33 31 31 31 31 30 25 23 23 25 26 24 20 19 17 16
nan nan nan nan nan 17 nan nan nan nan nan nan nan nan nan nan nan nan nan nan nan nan nan nan nan nan nan nan nan nan nan nan nan nan nan nan nan nan nan nan nan nan nan nan nan nan nan nan 62 72 75 67 63 66 70 66 67 66 66 56 48 47 50 51 50 49 49 46 41 41 36 33 33 31 30 28 24 23 25 26 25 22 20 18 17 18
nan nan nan nan nan nan nan nan nan nan nan nan nan nan nan nan nan nan nan nan nan nan nan nan nan nan nan nan nan nan nan nan nan nan nan nan nan nan nan nan nan nan nan nan nan nan nan nan 55 65 76 73 65 66 68 65 50 55 62 63 53 49 48 49 49 52 49 46 43 42 36 34 34 33 32 28 26 25 26 25 24 21 20 18 17 18
nan nan nan nan nan nan nan nan nan nan nan nan nan nan nan nan nan nan nan nan nan nan nan nan nan nan nan nan nan nan nan nan nan nan nan nan nan nan nan nan nan nan nan nan nan nan nan nan 59 64 74 77 71 66 70 70 59 45 46 55 57 50 45 46 48 49 47 45 42 39 36 35 34 34 34 30 28 26 25 24 24 22 20 19 18 18
nan nan nan nan nan nan nan nan nan nan nan nan nan nan nan nan nan nan nan nan nan nan nan nan nan nan nan nan nan nan nan nan nan nan nan nan nan nan nan nan nan nan nan nan nan nan nan nan 64 68 75 81 80 76 73 75 71 58 48 47 52 51 46 45 47 48 48 47 43 37 35 36 34 32 30 27 25 24 25 25 24 22 21 19 18 18
nan nan nan nan nan nan nan nan nan nan nan nan nan nan nan nan nan nan nan nan nan nan nan nan nan nan nan nan nan nan nan nan nan nan nan nan nan nan nan nan nan nan nan nan nan nan nan nan 59 67 75 81 84 83 76 68 64 62 57 47 45 51 46 45 47 47 47 47 43 37 34 35 32 30 31 29 26 26 26 25 23 23 21 18 17 18
nan nan nan nan nan nan nan nan nan nan nan nan nan nan nan nan nan nan nan nan nan nan nan nan nan nan nan nan nan nan nan nan nan nan nan nan nan nan nan nan nan nan nan nan nan nan nan nan nan 61 67 74 79 77 70 61 55 55 50 40 39 44 42 41 43 45 45 45 44 38 33 33 33 33 33 30 28 28 25 23 23 21 20 18 18 19
nan nan nan nan nan nan nan nan nan nan nan nan nan nan nan nan nan nan nan nan nan nan nan nan nan nan nan nan nan nan nan nan nan nan nan nan nan nan nan nan nan nan nan nan nan nan nan nan nan 55 59 64 69 67 62 56 56 54 44 34 35 43 44 43 43 45 44 43 43 40 39 39 37 35 34 31 28 26 23 23 22 21 19 17 18 19
nan nan nan nan nan nan nan nan nan nan nan nan nan nan nan nan nan nan nan nan nan nan nan nan nan nan nan nan nan nan nan nan nan nan nan nan nan nan nan nan nan nan nan nan nan nan nan nan nan 52 53 56 59 59 59 56 55 54 43 29 29 38 44 44 43 44 44 43 42 39 36 39 38 36 36 33 29 26 23 23 21 20 19 20 18 19
nan nan nan nan nan nan nan nan nan nan nan nan nan nan nan nan nan nan nan nan nan nan nan nan nan nan nan nan nan nan nan nan nan nan nan nan nan nan nan nan nan nan nan nan nan nan nan nan nan 50 50 53 54 54 57 56 56 57 40 27 31 39 40 41 43 44 45 44 41 34 34 39 39 37 38 33 30 26 23 22 20 20 21 19 19 19
nan nan nan nan nan nan nan nan nan nan nan nan nan nan nan nan nan nan nan nan nan nan nan nan nan nan nan nan nan nan nan nan nan nan nan nan nan nan nan nan nan nan nan nan nan nan nan nan 48 48 47 48 49 51 53 54 58 60 42 28 33 38 37 41 44 45 47 46 40 34 39 44 41 39 37 31 28 24 22 22 20 21 20 20 20 19
nan nan nan nan nan nan nan nan nan nan nan nan nan nan nan nan nan nan nan nan nan nan nan nan nan nan nan nan nan nan nan nan nan nan nan nan nan nan nan nan nan nan nan 51 50 46 44 nan nan 48 46 46 48 49 49 51 57 59 47 35 37 37 39 45 48 48 49 46 42 43 47 44 41 41 36 28 26 23 22 22 22 22 21 20 20 19
nan nan nan nan nan nan nan nan nan nan nan nan nan nan nan nan nan nan nan nan nan nan nan nan nan nan nan nan nan nan nan nan nan nan nan nan nan nan nan nan nan nan nan 52 50 46 44 nan nan 47 45 45 46 47 47 48 52 52 47 47 53 55 52 50 47 46 46 44 39 40 44 43 41 37 31 27 26 23 23 24 23 22 21 21 20 19
nan nan nan nan nan nan nan nan nan nan nan nan nan nan nan nan nan nan nan nan nan nan nan nan nan nan nan nan nan nan nan nan nan nan nan nan nan nan nan nan nan nan nan 51 51 48 43 nan 47 47 45 44 44 45 46 47 48 53 59 62 64 65 65 60 55 57 58 52 40 35 37 38 37 32 28 26 26 24 24 24 23 22 22 21 20 20
nan nan nan nan nan nan nan nan nan nan nan nan nan nan nan nan nan nan nan nan nan nan nan nan nan nan nan nan nan nan nan nan nan nan nan nan nan nan nan nan nan nan nan 49 50 46 44 nan 46 45 44 43 44 45 45 45 51 53 52 54 54 52 49 45 41 43 45 42 42 45 39 33 29 28 27 27 27 26 25 24 23 23 22 21 21 21
nan nan nan nan nan nan nan nan nan nan nan nan nan nan nan nan nan nan nan nan nan nan nan nan nan nan nan nan nan nan nan nan nan nan nan nan nan nan nan nan nan nan nan 48 49 45 43 nan 45 45 44 43 44 42 42 45 46 44 48 51 51 51 47 36 25 29 33 34 32 31 32 29 28 28 29 29 28 27 25 24 24 22 22 21 20 20
nan nan nan nan nan nan nan nan nan nan nan nan nan nan nan nan nan nan nan nan nan nan nan nan nan nan nan nan nan nan nan nan nan nan nan nan nan nan nan nan nan nan 38 41 43 43 43 nan 43 42 42 42 42 38 39 46 46 47 48 47 45 43 38 33 25 24 31 33 30 30 31 27 29 31 31 30 28 26 24 23 23 22 20 19 19 19
nan nan nan nan nan nan nan nan nan nan nan nan nan nan nan nan nan nan nan nan nan nan nan nan nan nan nan nan nan nan nan nan nan nan nan nan nan nan nan 14 19 25 32 40 43 41 nan nan 40 40 39 39 37 36 40 44 43 44 45 45 44 40 35 32 25 22 28 34 35 35 33 32 32 33 32 29 27 24 23 23 22 20 19 18 19 19
nan nan nan nan nan nan nan nan nan nan nan nan nan nan nan nan nan nan nan nan nan nan nan nan nan nan nan nan 19 22 27 30 27 23 21 17 11 6 5 11 17 29 38 41 39 nan nan nan 38 37 35 34 34 36 39 40 39 41 43 43 41 35 31 30 27 24 27 31 33 33 33 34 34 33 30 28 27 26 24 22 21 19 18 18 18 19
nan nan nan nan nan nan nan nan nan nan nan nan nan nan nan nan nan nan nan nan nan nan nan nan nan nan nan nan nan 20 25 26 26 27 23 25 25 23 20 20 24 31 34 nan nan nan nan nan 34 32 30 31 32 33 35 36 38 40 40 39 36 33 31 29 28 28 32 32 32 33 32 32 33 32 31 29 27 26 23 21 19 18 18 18 18 21
nan nan nan nan nan nan nan nan nan nan nan nan nan nan nan nan nan nan nan nan nan nan nan nan nan nan nan nan 22 25 20 17 22 27 27 32 32 30 27 27 24 24 nan nan nan nan nan nan 28 27 29 29 30 30 31 34 36 33 33 32 33 33 30 28 28 31 33 31 29 31 34 33 33 32 32 30 29 26 23 20 18 18 18 16 20 23
nan nan nan nan nan nan nan nan nan nan nan nan nan nan nan nan nan nan nan nan nan nan nan nan nan nan nan nan nan 23 18 14 19 25 25 29 33 33 27 27 29 nan nan nan nan nan nan 27 27 26 25 26 26 26 28 27 25 26 27 30 31 29 29 30 30 29 31 30 28 34 37 37 34 31 32 32 30 26 22 19 17 18 18 18 20 19
nan nan nan nan nan nan nan nan nan nan nan nan nan nan nan nan nan nan nan nan nan nan nan nan nan nan nan nan 20 20 18 18 21 22 25 29 32 34 32 29 27 34 22 nan nan nan nan 21 22 22 22 24 23 26 26 27 27 29 30 29 29 29 28 29 28 30 29 28 31 34 36 36 34 32 32 33 30 25 21 20 19 19 18 17 18 21
nan nan nan nan nan nan nan nan nan nan nan nan nan nan nan nan nan nan nan nan nan nan nan nan nan nan nan 22 23 21 21 24 22 22 26 33 35 36 39 35 30 30 29 17 16 18 19 21 21 21 23 25 25 25 24 25 27 27 27 27 27 28 27 27 27 28 27 29 30 30 32 34 35 32 32 32 29 24 21 20 19 18 18 19 23 24
nan nan nan nan nan nan nan nan nan nan nan nan nan nan nan nan nan nan nan nan nan nan nan nan nan nan nan 26 28 25 22 24 25 30 35 38 42 43 41 42 34 34 39 29 21 21 20 20 19 21 23 23 22 21 22 23 24 26 28 28 28 26 26 27 27 24 22 24 27 28 30 34 34 32 30 30 27 23 22 21 19 19 19 21 22 23
nan nan nan nan nan nan nan nan nan nan nan nan nan nan nan nan nan nan nan nan nan nan nan nan nan nan nan nan 32 32 25 nan 29 33 40 43 45 48 47 41 36 36 37 33 29 23 24 23 22 20 17 17 17 18 21 23 24 25 25 26 26 25 27 27 23 20 18 20 23 25 29 34 33 30 28 27 24 24 24 22 20 18 18 20 21 23
nan nan nan nan nan nan nan nan nan nan nan nan nan nan nan nan nan nan nan nan nan nan nan nan nan nan nan nan 33 30 nan 26 31 35 41 45 46 46 43 36 31 32 36 32 21 22 23 22 18 18 18 16 18 22 22 22 22 23 23 23 23 24 24 22 18 16 15 17 23 28 30 32 32 28 24 24 26 26 24 21 18 18 19 20 21 27
nan nan nan nan nan nan nan nan nan nan nan nan nan nan nan nan nan nan nan nan nan nan nan nan nan nan nan nan nan nan nan nan nan nan 43 45 44 39 37 37 35 31 31 35 35 28 24 24 24 23 20 19 19 22 23 24 23 21 21 20 22 21 18 15 13 14 18 23 26 27 27 28 27 24 22 25 27 26 24 22 21 19 20 20 24 28
nan nan nan nan nan nan nan nan nan nan nan nan nan nan nan nan nan nan nan nan nan nan nan nan nan nan nan 22 nan nan nan nan 34 39 40 41 39 36 33 32 33 34 34 34 30 28 27 27 25 24 27 30 29 24 22 22 23 22 22 21 20 17 15 16 20 22 22 24 27 29 30 29 24 22 24 27 27 26 24 21 19 21 22 23 26 27
nan nan nan nan nan nan nan nan nan nan nan nan nan nan nan nan nan nan nan nan nan nan nan nan nan nan nan nan nan nan 23 25 26 32 37 35 36 36 35 34 35 37 38 36 35 30 26 27 26 27 28 28 30 32 25 21 23 23 22 22 18 18 23 25 23 23 24 24 24 27 30 28 28 28 29 30 28 24 22 21 21 21 22 23 24 26
nan nan nan nan nan nan nan nan nan nan nan nan nan nan nan nan nan nan nan nan nan nan nan nan nan nan nan 18 17 17 23 29 30 32 33 33 31 30 31 32 34 37 39 41 38 39 35 33 35 37 36 34 31 35 39 31 23 25 28 27 27 28 28 27 25 25 26 24 22 24 25 27 26 24 25 26 24 22 22 22 22 21 22 23 24 27
nan nan nan nan nan nan nan nan nan nan nan nan nan nan nan nan nan nan nan nan nan nan nan nan nan nan nan nan nan nan 24 32 34 32 30 32 30 27 27 29 30 31 31 32 36 34 35 35 35 37 38 39 37 34 34 37 36 32 31 33 33 32 30 29 29 29 28 26 25 24 23 21 20 20 24 26 22 19 22 22 20 21 21 22 24 25
nan nan nan nan nan nan nan nan nan nan nan nan nan nan nan nan nan nan nan nan nan nan nan nan nan 20 20 23 21 23 28 35 32 29 28 31 31 31 30 31 31 27 24 23 22 25 22 24 27 30 33 35 37 36 34 30 28 33 36 32 32 33 32 32 34 33 28 24 25 25 21 18 18 23 30 26 20 17 19 20 19 21 20 21 23 24
nan nan nan nan nan nan nan nan nan nan nan nan nan nan nan nan nan nan nan nan nan nan nan nan nan nan nan 18 16 21 27 33 31 30 31 32 32 34 34 33 33 33 29 26 26 26 21 18 22 24 26 31 32 33 36 32 29 32 30 29 30 31 33 35 34 29 24 22 21 20 18 17 23 29 28 23 15 16 18 17 18 20 19 21 22 23
nan nan nan nan nan nan nan nan nan nan nan nan nan nan nan nan nan nan nan nan nan nan nan nan nan nan 14 15 17 20 25 30 31 30 29 30 32 34 34 34 32 32 33 32 29 26 26 24 22 23 26 28 26 27 25 25 26 26 27 28 28 32 34 35 34 34 32 25 20 20 20 22 25 27 25 18 17 20 19 18 20 20 20 20 22 23
nan nan nan nan nan nan nan nan nan nan nan nan nan nan nan nan nan nan nan nan nan nan nan nan nan nan nan nan nan 20 22 28 32 32 29 29 30 31 33 33 32 31 33 33 31 30 29 28 25 28 32 32 32 33 32 27 27 27 27 27 28 29 30 30 31 32 30 27 24 24 24 26 27 27 25 25 24 24 23 24 25 25 24 24 23 24
nan nan nan nan nan nan nan nan nan nan nan nan nan nan nan nan nan nan nan nan nan nan nan nan nan nan nan nan nan nan 22 24 27 29 30 29 31 33 33 32 31 30 30 30 30 31 31 26 24 29 35 36 34 34 31 29 27 29 31 31 30 30 33 34 34 33 31 28 27 28 26 27 24 20 23 26 28 28 29 27 26 25 26 27 25 24
nan nan nan nan nan nan nan nan nan nan nan nan nan nan nan nan nan nan nan nan nan nan nan nan nan nan nan nan nan 18 nan 20 23 27 30 29 30 32 34 32 31 32 31 28 27 30 31 29 25 26 31 32 31 29 29 30 30 30 28 27 26 28 32 33 33 33 30 26 26 25 23 21 21 22 23 24 28 33 34 35 36 32 29 27 29 28
nan nan nan nan nan nan nan nan nan nan nan nan nan nan nan nan nan nan nan nan nan nan nan nan nan nan nan nan nan nan nan 20 nan 23 26 29 31 30 31 32 31 30 29 29 29 30 28 27 27 28 27 26 26 27 26 26 28 29 30 28 27 29 31 33 34 32 28 24 22 20 18 20 23 23 23 25 27 29 30 30 33 38 38 35 34 35
Wind_Direction
nan nan nan nan nan nan nan nan nan nan nan nan nan nan nan nan nan nan nan nan nan nan nan nan nan nan nan nan nan nan nan nan nan nan nan nan nan nan nan nan nan nan nan nan nan nan 222 225 228 229 232 235 233 227 225 228 229 224 220 222 222 223 233 238 241 243 244 244 243 244 251 255 257 263 264 263 264 268 270 278 283 273 268 285 299 308
nan nan nan nan nan nan nan nan nan nan nan nan nan nan nan nan nan nan nan nan nan nan nan nan nan nan nan nan nan nan nan nan nan nan nan nan nan nan nan nan nan nan nan nan nan nan 215 220 220 219 222 228 233 230 232 233 231 219 217 225 233 239 247 250 249 246 243 242 244 250 252 251 257 260 261 263 264 267 268 277 275 259 266 287 297 301
nan nan nan nan nan nan nan nan nan nan nan nan nan nan nan nan nan nan nan nan nan nan nan nan nan nan nan nan nan nan nan nan nan nan nan nan nan nan nan nan nan nan nan nan nan nan 214 218 219 219 222 223 229 233 231 231 231 232 234 240 247 251 254 252 249 245 243 240 240 244 246 247 248 247 250 254 256 261 267 273 270 257 266 284 290 296
nan nan nan nan nan nan nan nan nan nan nan nan nan nan nan nan nan nan nan nan nan nan nan nan nan nan nan nan nan nan nan nan nan nan nan nan nan nan nan nan nan nan nan nan nan nan 213 214 217 217 218 224 223 213 224 226 233 238 242 246 250 252 251 247 244 244 244 242 238 238 239 241 243 244 243 248 251 257 265 272 265 256 269 281 286 294
nan nan nan nan nan nan nan nan nan nan nan nan nan nan nan nan nan nan nan nan nan nan nan nan nan nan nan nan nan nan nan nan nan nan nan nan nan nan nan nan nan nan nan nan nan nan 210 211 213 217 218 220 224 224 212 226 233 238 242 245 250 250 249 243 241 244 244 242 239 237 233 232 234 234 241 244 251 259 262 268 264 258 268 278 283 294
nan nan nan nan nan nan nan nan nan nan nan nan nan nan nan nan nan nan nan nan nan nan nan nan nan nan nan nan nan nan nan nan nan nan nan nan nan nan nan nan nan nan nan nan nan nan 212 209 212 217 220 221 221 224 225 215 231 237 240 243 245 242 242 239 238 241 243 241 240 240 241 241 240 243 248 255 267 265 268 271 256 251 263 271 281 295
nan nan nan nan nan nan nan nan nan nan nan nan nan nan nan nan nan nan nan nan nan nan nan nan nan nan nan nan nan nan nan nan nan nan nan nan nan nan nan nan nan nan nan nan nan nan 216 210 209 216 222 224 223 222 231 228 218 230 237 241 242 240 239 236 234 237 237 234 234 239 242 243 245 248 245 247 248 254 255 255 249 247 256 267 283 293
nan nan nan nan nan nan nan nan nan nan nan nan nan nan nan nan nan nan nan nan nan nan nan nan nan nan nan nan nan nan nan nan nan nan nan nan nan nan nan nan nan nan nan nan nan nan 219 217 212 212 216 223 227 222 226 233 219 221 230 234 236 236 236 232 232 233 232 231 232 236 238 239 240 242 241 237 242 246 251 248 241 245 254 262 278 291
nan nan nan nan nan nan nan nan nan nan nan nan nan nan nan nan nan nan nan nan nan nan nan nan nan nan nan nan nan nan nan nan nan nan nan nan nan nan nan nan nan nan nan nan nan nan nan 220 217 213 212 214 223 224 223 231 226 218 228 233 237 239 239 236 236 234 234 234 236 236 237 238 236 240 239 235 240 246 245 240 235 247 254 262 272 284
nan nan nan nan nan nan nan nan nan nan nan nan nan nan nan nan nan nan nan nan nan nan nan nan nan nan nan nan nan nan nan nan nan nan nan nan nan nan nan nan nan nan nan nan nan nan nan 223 222 220 214 211 215 221 223 228 229 224 230 234 238 238 237 236 237 235 238 241 242 242 241 242 237 238 237 235 241 244 239 234 238 246 254 262 269 280
nan nan nan nan nan nan nan nan nan nan nan nan nan nan nan nan nan nan nan nan nan nan nan nan nan nan nan nan nan nan nan nan nan nan nan nan nan nan nan nan nan nan nan nan nan nan nan 226 226 225 220 215 214 216 223 228 231 225 230 235 239 239 235 235 236 236 241 242 244 245 243 240 240 238 234 234 239 239 232 234 242 249 254 260 272 282
nan nan nan nan nan nan nan nan nan nan nan nan nan nan nan nan nan nan nan nan nan nan nan nan nan nan nan nan nan nan nan nan nan nan nan nan nan nan nan nan nan nan nan nan nan nan nan nan 227 227 225 222 222 218 217 225 228 227 230 234 238 234 234 234 234 233 236 237 241 242 242 239 235 230 227 235 239 229 228 235 244 245 252 260 271 284
nan nan nan nan 340 nan nan nan nan nan nan nan nan nan nan nan nan nan nan nan nan nan nan nan nan nan nan nan nan nan nan nan nan nan nan nan nan nan nan nan nan nan nan nan nan nan nan nan 230 229 228 224 223 223 223 216 220 228 230 235 237 235 234 235 234 234 234 233 233 233 235 235 229 222 224 229 225 217 226 234 243 249 257 263 275 287
nan nan nan nan nan 339 nan nan nan nan nan nan nan nan nan nan nan nan nan nan nan nan nan nan nan nan nan nan nan nan nan nan nan nan nan nan nan nan nan nan nan nan nan nan nan nan nan nan 230 232 230 226 223 226 227 224 216 222 231 235 237 235 235 234 233 234 233 232 231 225 227 228 226 222 224 222 214 214 224 234 244 253 260 270 283 287
nan nan nan nan nan nan nan nan nan nan nan nan nan nan nan nan nan nan nan nan nan nan nan nan nan nan nan nan nan nan nan nan nan nan nan nan nan nan nan nan nan nan nan nan nan nan nan nan 227 230 231 228 225 224 224 228 225 214 227 236 236 236 233 232 234 232 232 230 229 227 224 221 222 222 222 216 209 215 224 233 245 251 259 271 278 285
nan nan nan nan nan nan nan nan nan nan nan nan nan nan nan nan nan nan nan nan nan nan nan nan nan nan nan nan nan nan nan nan nan nan nan nan nan nan nan nan nan nan nan nan nan nan nan nan 220 225 228 229 228 227 226 227 228 224 221 238 241 241 236 231 232 232 233 231 229 227 221 210 215 222 220 214 210 214 224 234 243 253 260 268 275 279
nan nan nan nan nan nan nan nan nan nan nan nan nan nan nan nan nan nan nan nan nan nan nan nan nan nan nan nan nan nan nan nan nan nan nan nan nan nan nan nan nan nan nan nan nan nan nan nan 216 220 225 227 227 228 229 231 233 235 237 238 241 238 234 231 231 232 230 229 228 227 220 208 208 220 221 216 212 215 223 234 242 253 261 267 276 284
nan nan nan nan nan nan nan nan nan nan nan nan nan nan nan nan nan nan nan nan nan nan nan nan nan nan nan nan nan nan nan nan nan nan nan nan nan nan nan nan nan nan nan nan nan nan nan nan 212 215 220 225 227 229 230 232 234 234 236 234 229 233 233 229 229 230 230 231 228 228 223 209 204 215 221 218 215 217 225 231 242 251 261 271 276 282
nan nan nan nan nan nan nan nan nan nan nan nan nan nan nan nan nan nan nan nan nan nan nan nan nan nan nan nan nan nan nan nan nan nan nan nan nan nan nan nan nan nan nan nan nan nan nan nan nan 212 215 219 223 226 226 226 228 226 229 231 216 224 231 233 229 229 229 231 229 229 225 212 204 212 220 217 217 221 226 236 244 254 264 269 273 281
nan nan nan nan nan nan nan nan nan nan nan nan nan nan nan nan nan nan nan nan nan nan nan nan nan nan nan nan nan nan nan nan nan nan nan nan nan nan nan nan nan nan nan nan nan nan nan nan nan 211 213 216 217 218 216 216 217 219 225 233 210 206 219 224 226 227 228 228 228 227 219 207 204 213 218 218 221 223 228 237 246 256 262 272 274 281
nan nan nan nan nan nan nan nan nan nan nan nan nan nan nan nan nan nan nan nan nan nan nan nan nan nan nan nan nan nan nan nan nan nan nan nan nan nan nan nan nan nan nan nan nan nan nan nan nan 209 212 215 214 212 209 208 210 212 222 234 218 205 212 217 221 223 223 224 225 225 216 206 206 213 215 218 220 223 229 236 246 256 262 263 273 280
nan nan nan nan nan nan nan nan nan nan nan nan nan nan nan nan nan nan nan nan nan nan nan nan nan nan nan nan nan nan nan nan nan nan nan nan nan nan nan nan nan nan nan nan nan nan nan nan nan 208 211 213 212 207 205 204 205 206 216 229 215 203 208 216 219 220 221 222 223 222 211 203 206 212 214 217 219 224 232 238 248 255 257 268 274 278
nan nan nan nan nan nan nan nan nan nan nan nan nan nan nan nan nan nan nan nan nan nan nan nan nan nan nan nan nan nan nan nan nan nan nan nan nan nan nan nan nan nan nan nan nan nan nan nan 203 208 211 211 209 205 203 203 204 206 215 228 214 206 206 211 218 220 220 220 220 214 205 201 203 209 212 216 220 226 233 239 248 253 262 269 273 277
nan nan nan nan nan nan nan nan nan nan nan nan nan nan nan nan nan nan nan nan nan nan nan nan nan nan nan nan nan nan nan nan nan nan nan nan nan nan nan nan nan nan nan 208 205 202 199 nan nan 205 210 210 206 202 201 202 205 209 216 222 214 207 207 212 216 219 219 219 215 208 201 198 200 206 209 214 221 229 235 241 248 253 262 270 273 280
nan nan nan nan nan nan nan nan nan nan nan nan nan nan nan nan nan nan nan nan nan nan nan nan nan nan nan nan nan nan nan nan nan nan nan nan nan nan nan nan nan nan nan 208 208 202 196 nan nan 204 206 206 205 200 198 200 204 208 212 213 208 204 206 213 216 219 219 222 221 206 196 192 196 203 207 213 220 230 237 242 250 256 265 270 277 277
nan nan nan nan nan nan nan nan nan nan nan nan nan nan nan nan nan nan nan nan nan nan nan nan nan nan nan nan nan nan nan nan nan nan nan nan nan nan nan nan nan nan nan 207 209 204 196 nan 201 205 204 202 202 200 197 197 201 206 212 216 216 214 207 205 211 210 209 204 202 205 200 191 191 198 206 214 221 231 237 242 250 258 263 274 276 273
nan nan nan nan nan nan nan nan nan nan nan nan nan nan nan nan nan nan nan nan nan nan nan nan nan nan nan nan nan nan nan nan nan nan nan nan nan nan nan nan nan nan nan 205 208 205 197 nan 199 204 203 200 199 198 197 196 201 207 211 213 213 214 219 217 209 215 216 212 205 196 191 192 190 200 209 215 222 228 233 241 249 257 266 272 274 272
nan nan nan nan nan nan nan nan nan nan nan nan nan nan nan nan nan nan nan nan nan nan nan nan nan nan nan nan nan nan nan nan nan nan nan nan nan nan nan nan nan nan nan 204 206 204 199 nan 197 202 202 198 197 198 197 198 204 208 211 210 208 208 210 217 226 218 219 218 213 203 192 187 197 206 213 218 222 226 232 239 246 255 264 269 272 271
nan nan nan nan nan nan nan nan nan nan nan nan nan nan nan nan nan nan nan nan nan nan nan nan nan nan nan nan nan nan nan nan nan nan nan nan nan nan nan nan nan nan 198 199 202 203 200 nan 195 199 199 196 197 197 198 200 201 205 207 207 207 209 209 214 224 216 209 211 214 208 203 206 207 212 217 221 223 227 233 240 246 253 264 268 267 263
nan nan nan nan nan nan nan nan nan nan nan nan nan nan nan nan nan nan nan nan nan nan nan nan nan nan nan nan nan nan nan nan nan nan nan nan nan nan nan 179 186 195 197 196 196 197 nan nan 196 198 196 197 197 195 196 199 201 203 205 203 204 204 203 210 216 215 209 205 207 213 212 214 216 220 222 223 226 230 235 242 247 254 262 264 263 260
nan nan nan nan nan nan nan nan nan nan nan nan nan nan nan nan nan nan nan nan nan nan nan nan nan nan nan nan 72 90 97 97 99 88 81 84 73 57 115 153 180 187 188 188 188 nan nan nan 196 195 195 195 195 196 197 198 199 202 203 203 202 201 201 207 211 207 205 207 208 210 212 214 218 225 227 226 226 230 235 241 248 255 260 260 258 257
nan nan nan nan nan nan nan nan nan nan nan nan nan nan nan nan nan nan nan nan nan nan nan nan nan nan nan nan nan 91 101 106 110 119 123 123 134 147 153 162 173 176 179 nan nan nan nan nan 193 192 192 194 194 195 196 196 199 202 201 200 199 199 203 205 207 207 206 208 206 206 211 212 218 227 232 231 230 231 235 240 248 255 257 256 253 248
nan nan nan nan nan nan nan nan nan nan nan nan nan nan nan nan nan nan nan nan nan nan nan nan nan nan nan nan 101 104 107 115 113 118 123 129 132 137 141 148 153 167 nan nan nan nan nan nan 189 189 191 193 193 194 195 199 201 200 200 199 197 200 203 207 210 211 211 210 208 207 207 210 216 226 234 236 234 232 234 241 248 251 253 255 248 243
nan nan nan nan nan nan nan nan nan nan nan nan nan nan nan nan nan nan nan nan nan nan nan nan nan nan nan nan nan 99 103 102 101 106 111 123 125 130 136 146 161 nan nan nan nan nan nan 187 184 186 190 190 192 194 195 200 202 198 198 199 199 199 201 210 212 213 214 215 214 216 212 205 207 219 230 237 237 234 235 241 246 248 250 251 248 247
nan nan nan nan nan nan nan nan nan nan nan nan nan nan nan nan nan nan nan nan nan nan nan nan nan nan nan nan 108 106 105 97 93 104 120 128 128 131 133 136 166 158 165 nan nan nan nan 177 180 183 185 186 190 192 196 193 195 199 198 197 195 195 203 207 215 214 214 215 217 220 217 204 199 211 225 236 239 236 235 237 240 248 251 253 254 252
nan nan nan nan nan nan nan nan nan nan nan nan nan nan nan nan nan nan nan nan nan nan nan nan nan nan nan 125 122 114 101 101 101 100 130 131 133 133 132 131 144 152 139 139 142 150 163 172 177 183 183 186 190 190 193 194 194 200 198 194 196 197 200 209 216 215 213 218 218 223 223 214 203 207 221 235 240 238 235 236 242 251 248 245 245 243
nan nan nan nan nan nan nan nan nan nan nan nan nan nan nan nan nan nan nan nan nan nan nan nan nan nan nan 131 127 119 104 103 118 131 133 132 131 132 125 121 131 137 131 130 141 150 159 170 178 183 188 186 187 190 185 188 192 195 197 194 192 195 198 208 216 214 215 221 220 223 228 225 212 205 217 233 240 237 236 238 241 242 243 248 248 253
nan nan nan nan nan nan nan nan nan nan nan nan nan nan nan nan nan nan nan nan nan nan nan nan nan nan nan nan 136 127 110 nan 135 126 128 130 130 130 126 121 129 134 132 135 146 157 162 170 178 181 186 184 180 179 182 185 191 194 194 192 191 193 198 207 213 216 219 220 219 223 229 228 220 209 215 229 236 235 234 234 236 242 241 248 250 251
nan nan nan nan nan nan nan nan nan nan nan nan nan nan nan nan nan nan nan nan nan nan nan nan nan nan nan nan 130 134 nan 131 121 121 126 128 128 129 129 131 134 140 136 133 143 155 163 167 170 170 173 178 176 173 181 188 192 192 190 190 192 194 202 206 212 220 225 219 217 220 227 228 218 207 211 225 229 234 239 239 240 238 235 236 243 248
nan nan nan nan nan nan nan nan nan nan nan nan nan nan nan nan nan nan nan nan nan nan nan nan nan nan nan nan nan nan nan nan nan nan 126 128 128 135 141 141 143 145 147 148 152 159 167 170 174 173 171 170 174 180 183 186 186 186 186 187 193 197 199 204 209 220 222 219 216 217 223 222 213 200 208 226 231 235 238 235 237 238 235 233 236 245
nan nan nan nan nan nan nan nan nan nan nan nan nan nan nan nan nan nan nan nan nan nan nan nan nan nan nan 144 nan nan nan nan 122 122 129 136 145 146 147 149 150 153 156 154 156 163 171 172 175 178 176 174 174 176 182 183 186 185 187 192 194 195 195 202 212 220 219 212 209 211 218 216 205 201 210 224 234 237 238 239 241 240 237 237 239 243
nan nan nan nan nan nan nan nan nan nan nan nan nan nan nan nan nan nan nan nan nan nan nan nan nan nan nan nan nan nan 123 124 133 145 143 146 147 145 148 151 156 162 163 163 160 163 170 172 176 178 179 179 180 171 171 181 187 190 194 195 195 195 202 209 218 219 210 202 202 209 214 212 201 201 214 225 232 238 240 236 241 243 243 238 242 246
nan nan nan nan nan nan nan nan nan nan nan nan nan nan nan nan nan nan nan nan nan nan nan nan nan nan nan 137 146 143 150 158 154 144 145 150 149 151 152 155 161 165 169 168 167 167 168 173 176 175 171 173 182 183 175 176 189 193 194 195 196 201 207 214 217 209 198 195 202 209 210 208 206 209 218 227 231 234 239 239 241 238 242 244 243 248
nan nan nan nan nan nan nan nan nan nan nan nan nan nan nan nan nan nan nan nan nan nan nan nan nan nan nan nan nan nan 148 148 149 145 151 151 152 159 159 161 167 170 172 173 168 174 177 177 179 179 180 177 178 189 192 184 181 193 203 193 193 202 209 213 207 198 194 198 205 210 210 210 209 208 217 218 220 227 239 241 239 239 241 245 249 252
nan nan nan nan nan nan nan nan nan nan nan nan nan nan nan nan nan nan nan nan nan nan nan nan nan 125 139 146 148 145 143 143 141 144 152 154 158 158 156 158 161 165 168 167 160 162 178 180 186 187 187 184 183 186 189 187 188 198 203 196 204 206 204 198 192 192 200 206 207 207 205 200 204 207 206 199 202 226 238 241 243 242 235 243 248 253
nan nan nan nan nan nan nan nan nan nan nan nan nan nan nan nan nan nan nan nan nan nan nan nan nan nan nan 143 158 153 145 138 145 155 159 159 162 160 158 163 164 161 166 173 170 166 167 185 194 199 197 195 188 196 193 187 198 212 207 208 211 207 197 190 191 199 211 218 215 210 202 193 199 201 196 188 196 229 243 250 247 247 244 244 248 251
nan nan nan nan nan nan nan nan nan nan nan nan nan nan nan nan nan nan nan nan nan nan nan nan nan nan 137 140 157 150 148 146 149 153 160 162 164 164 164 163 165 167 165 169 166 164 167 173 195 199 197 196 190 196 201 201 206 212 216 218 212 203 195 192 199 206 209 216 219 213 206 199 194 198 200 198 220 231 231 234 248 252 251 251 253 253
nan nan nan nan nan nan nan nan nan nan nan nan nan nan nan nan nan nan nan nan nan nan nan nan nan nan nan nan nan 150 156 161 159 157 162 165 165 163 165 164 166 174 170 170 172 175 179 185 187 187 189 190 185 188 196 201 204 202 214 216 210 208 209 210 212 213 213 210 205 204 202 201 211 219 222 222 227 229 229 228 229 237 239 241 245 257
nan nan nan nan nan nan nan nan nan nan nan nan nan nan nan nan nan nan nan nan nan nan nan nan nan nan nan nan nan nan 166 170 168 166 170 171 172 167 164 166 171 175 175 179 181 185 185 187 188 183 185 187 186 188 202 211 206 202 203 202 203 210 215 215 216 217 216 211 204 199 198 199 203 226 242 242 238 235 231 223 229 236 240 236 233 238
nan nan nan nan nan nan nan nan nan nan nan nan nan nan nan nan nan nan nan nan nan nan nan nan nan nan nan nan nan 168 nan 173 178 173 172 173 174 171 168 169 172 174 176 176 188 193 199 198 198 194 192 188 184 189 197 199 196 192 199 210 217 223 224 223 224 224 224 223 212 202 206 211 223 233 239 244 249 249 241 237 237 234 239 235 230 243
nan nan nan nan nan nan nan nan nan nan nan nan nan nan nan nan nan nan nan nan nan nan nan nan nan nan nan nan nan nan nan 176 nan 177 178 175 175 174 172 171 173 175 180 184 192 193 199 202 205 205 200 191 188 187 191 199 198 197 197 206 222 231 234 238 233 228 227 224 217 209 218 229 233 237 242 244 247 249 252 248 239 238 239 242 245 248